Terminal Aerodrome Forecast
Issued by NWS

Home | Current Version | Previous Version | Text Only | Print | Product List | Glossary On
Versions: 1 2 3 4 5 6 7 8 9 10 11 12 13 14 15 16 17 18 19 20 21 22 23 24 25 26 27 28 29 30 31 32 33 34 35 36 37 38 39 40 41 42 43 44 45 46 47
000
FTUS44 KHGX 221613 AAC
TAFCXO
TAF AMD
KCXO 221613Z 2216/2312 21013G19KT P6SM OVC015
     FM221800 23013KT P6SM SCT025 BKN250
     FM222100 VRB03KT P6SM BKN250
     FM230500 VRB05KT P6SM SCT025 BKN030 BKN250=

USA.gov is the U.S. government's official web portal to all federal, state and local government web resources and services.